Date,TemperatureHighF,TemperatureAvgF,TemperatureLowF,DewpointHighF,DewpointAvgF,DewpointLowF,HumidityHigh,HumidityAvg,HumidityLow,PressureMaxIn,PressureMinIn,WindSpeedMaxMPH,WindSpeedAvgMPH,GustSpeedMaxMPH,PrecipitationSumIn
2013-3-1,40,35,30,34,30,28,95,84,70,29.36,29.21,0,0,0,0.00
2013-3-2,47,36,29,34,28,26,87,75,57,29.36,29.29,0,0,0,0.00
2013-3-3,42,34,29,35,28,26,88,82,64,29.33,29.23,0,0,0,0.05
2013-3-4,38,32,28,28,24,21,82,73,63,29.46,29.26,0,0,0,0.00
2013-3-5,50,36,26,33,27,21,85,71,48,29.76,29.45,0,0,0,0.00
2013-3-6,40,36,33,33,30,26,90,79,63,29.86,29.74,0,0,0,0.00
2013-3-7,38,33,31,30,28,25,89,81,67,29.83,29.72,0,0,0,0.00
2013-3-8,47,36,31,33,28,25,91,75,44,29.83,29.67,0,0,0,0.17
2013-3-9,60,46,29,34,24,13,76,47,20,30.04,29.88,0,0,0,0.00
2013-3-10,54,37,22,35,27,18,86,70,45,30.08,29.95,0,0,0,0.00
2013-3-11,56,42,31,38,33,28,89,72,47,29.98,29.79,0,0,0,0.00
2013-3-12,50,45,37,48,43,32,96,94,82,29.79,29.37,0,0,0,0.40
2013-3-13,52,41,29,45,33,23,95,75,47,29.44,29.37,0,0,0,0.00
2013-3-14,38,30,20,25,19,8,86,65,47,29.49,29.35,0,0,0,0.00
2013-3-15,43,29,17,29,15,5,89,58,31,29.51,29.27,0,0,0,0.00
2013-3-16,40,31,24,26,17,13,84,59,40,29.56,29.35,0,0,0,0.01
2013-3-17,39,27,18,17,10,2,76,51,28,29.99,29.55,0,0,0,0.00
2013-3-18,42,28,11,22,8,2,70,46,27,30.11,29.90,0,0,0,0.00
2013-3-19,35,31,26,31,27,22,92,86,68,29.90,29.36,0,0,0,0.05
2013-3-20,38,31,26,26,23,18,88,73,55,29.43,29.33,0,0,0,0.13
2013-3-21,48,31,14,27,18,10,85,63,34,29.45,29.27,0,0,0,0.12
2013-3-22,45,32,22,26,20,16,79,62,39,29.37,29.28,0,0,0,0.00
2013-3-23,44,34,22,24,21,16,81,61,42,29.43,29.29,0,0,0,0.00
2013-3-24,52,39,29,29,25,21,76,59,40,29.49,29.42,0,0,0,0.00
2013-3-25,47,36,25,33,26,20,83,69,51,29.47,29.22,0,0,0,0.00
2013-3-26,56,41,32,32,26,20,80,57,30,29.46,29.25,0,0,0,0.00
2013-3-27,59,40,25,32,26,20,82,61,33,29.56,29.43,0,0,0,0.00
2013-3-28,51,41,33,39,32,27,88,72,52,29.69,29.56,0,0,0,0.01
2013-3-29,61,43,31,40,32,27,89,67,41,29.72,29.65,0,0,0,0.00
2013-3-30,61,43,30,33,25,17,85,54,24,29.78,29.68,0,0,0,0.00
2013-3-31,62,43,24,38,26,18,83,55,25,29.79,29.46,0,0,0,0.00